Regional Weather Roundup
Issued by NWS Portland, ME

Home | Current Version | Previous Version | Text Only | Print | Product List | Glossary On
Versions: 1 2 3 4 5 6 7 8 9 10 11 12 13 14 15 16 17 18 19 20 21 22 23 24 25 26 27 28 29 30 31 32 33 34 35 36 37 38 39 40 41 42 43 44 45 46 47 48 49 50
789
ASUS41 KGYX 211410
RWRGYX
WEATHER ROUNDUP FOR MAINE AND NEW HAMPSHIRE
NATIONAL WEATHER SERVICE GRAY ME
900 AM EST TUE NOV 21 2017

MEZ002-005-006-010-012-015-018-020-021-024-026-027-029-211500-
MAINE

CITY           SKY/WX    TMP DP  RH WIND       PRES   REMARKS
PORTLAND       MOSUNNY   36  26  67 S7        30.08F
SANFORD          N/A     37  27  67 SW10      30.07S
BAR HARBOR     SUNNY     28  18  66 SE5       30.12
WISCASSET      SUNNY     33  25  72 CALM      30.09F
ROCKLAND       SUNNY     38  30  73 CALM      30.09F
FRYEBURG       SUNNY     32  24  72 CALM      30.04F
LEWISTONAUBURN SUNNY     32  25  75 S5        30.06F
AUGUSTA        SUNNY     28  18  66 S6        30.06F
WATERVILLE     SUNNY     26  18  71 SW3       30.02F
BANGOR         MOSUNNY   26  15  63 S7        30.09S
GREENVILLE     NOT AVBL
MILLINOCKET    CLOUDY    20  12  71 VRB3      30.05S
HOULTON        MOSUNNY   21  10  62 CALM      30.02F
PRESQUE ISLE   CLOUDY    18  10  71 S5        30.02F
FRENCHVILLE    CLOUDY    13   7  77 S6        29.93F
CARIBOU        CLOUDY    18   8  65 S6        30.00R
$$

NHZ002-005-008-009-011-012-014-211500-
NEW HAMPSHIRE

CITY           SKY/WX    TMP DP  RH WIND       PRES   REMARKS
PORTSMOUTH     PTSUNNY   40  26  57 SW10      30.08S
ROCHESTER      SUNNY     35  28  75 CALM      30.07S
NASHUA         CLOUDY    35  29  78 VRB3      30.09F
MANCHESTER     MOSUNNY   37  25  61 S6        30.06F
CONCORD        CLOUDY    34  28  79 S7        30.07S
LACONIA        SUNNY     38  34  85 SW3       30.05F
PLYMOUTH       FAIR      29  25  85 CALM      30.05F
BERLIN         SUNNY     27  19  72 CALM      29.97F
WHITEFIELD     SUNNY     27  21  78 CALM      29.95F
JAFFREY        CLOUDY    34  28  79 S3        30.04F
KEENE          MOSUNNY   35  32  88 CALM      30.07F
LEBANON        SUNNY     31  26  82 NE5       30.01F
MT WASHINGTON  MOSUNNY   23  12  63 W59         N/A  WCI   0
$$

VTZ005-007-008-211500-
VERMONT

CITY           SKY/WX    TMP DP  RH WIND       PRES   REMARKS
ST JOHNSBURY     N/A     26  22  84 MISG      29.96F
MONTPELIER     SUNNY     31  27  85 CALM      29.96F
BURLINGTON     MOSUNNY   40  26  57 S14G31    29.90F
$$

MAZ007-012-024-CTZ003-RIZ002-NYZ038-NYZ072-211500-
SOUTHERN NEW ENGLAND AND NY

CITY           SKY/WX    TMP DP  RH WIND       PRES   REMARKS
BOSTON         CLOUDY    45  30  55 SW13      30.11F
WORCESTER      SUNNY     40  22  48 SW13      30.07F
NANTUCKET      SUNNY     55  41  59 SW21G26   30.19R
PROVIDENCE     MOSUNNY   50  35  56 SW9       30.16R
HARTFORD       MOSUNNY   43  25  49 S12       30.11F
ALBANY         MOSUNNY   40  23  50 S13       30.01F
NEW YORK CITY  MOSUNNY   48  32  53 SW17      30.13F
$$

ANZ081-ANZ082-ANZ150-NHZ014-MEZ023>029-211500-
COASTAL MARINE OBSERVATIONS

STATION/POSITION TIME  TEMP    WIND        PRES    WAVE
                       AIR SEA DIR/SP/G            HT/PER
                 (UTC) (F)     (DEG/KT/KT) (MB)    (FT/S)
MOUNT DESERT ROC 1400   40     140/ 12/ 13 1019.8F
MATINICUS ROCK   1300   41     150/  6/  7 1018.7R
ISLE OF SHOALS   1300   40     220/ 19/ 21 1018.7S
JEFFREYS LEDGE   1306      49                N/A     4/ 5
CASHES LEDGE BUO 1250   49 51              1019.3    5/ 6
GEORGES BANK BUO 1250   52 53              1023.3   11/ 9
$$

.............KEY..............
   WCI - WIND CHILL
   TC  - TEMPERATURE IN CELSIUS
   VSB - VISIBILITY IN MILES
   HX  - HEAT INDEX
   FAIR- INDICATES FEW OR NO CLOUDS BELOW 12,000 FT, WITH NO
         SIGNIFICANT WEATHER AND/OR OBSTRUCTIONS TO VISIBILITY.






USA.gov is the U.S. government's official web portal to all federal, state and local government web resources and services.